OpenBCM V1.08-5-g2f4a (Linux)

Packet Radio Mailbox

IZ3LSV

[San Dona' di P. JN]

 Login: GUEST





  
LU9DCE > KEPS     17.03.18 17:16l 262 Lines 13004 Bytes #999 (0) @ WW
BID : 34467_LU9DCE
Read: GUEST
Subj: SAT TLE OF 17
Path: IZ3LSV<DB0ERF<DB0RES<IR2UBX<EA2RCF<LU9DCE
Sent: 180317/1601Z @:LU9DCE.TOR.BA.ARG.SOAM #:34467 [TORTUGUITAS] FBB7.07
From: LU9DCE@LU9DCE.TOR.BA.ARG.SOAM
To  : KEPS@WW


            __    _  _  ___  ____   ___  ____    ____  ____  ____
           (  )  / )( \/ _ \(    \ / __)(  __)  (  _ \(  _ \/ ___)
           / (_/\) \/ (\__  )) D (( (__  ) _)    ) _ ( ) _ (\___ \
           \____/\____/(___/(____/ \___)(____)  (____/(____/(____/
               ESTACION DE PACKET RADIO - BUENOS AIRES (GF05OM)
                   BOLETINES INFORMATIVOS PROGRAMADOS (BIP)
                    LU9DCE@GMX.COM - RF 147070 @ 1200 BAUD
                           telnet lu9dce.dynu.com
             BBS port 6300 / NODE port 3694 / DXCLUSTER port 9000

+------------------------------------------------------------------------------+
OSCAR 7
1 07530U 74089B   18076.49265414 -.00000052  00000-0 -46609-4 0  9998
2 07530 101.6760  45.2289 0012204 151.1905 321.4073 12.53631588983102
OSCAR 11 (UoSAT 2)
1 14781U 84021B   18076.10299941  .00000099  00000-0  18347-4 0  9998
2 14781  97.6613 116.1880 0009195  34.0693 326.1110 14.82987258830794
OSCAR 19 (LUSAT)
1 20442U 90005G   18075.89891282 -.00000015 +00000-0 +10667-4 0  9995
2 20442 098.6029 014.9971 0012831 064.9469 295.3046 14.32889214470611
KITSAT B
1 22825U 93061C   18075.93247926 -.00000011 +00000-0 +13773-4 0  9999
2 22825 098.8528 050.4255 0007362 254.2119 105.8251 14.30024248276111
POSAT 1
1 22826U 93061D   18076.53026345  .00000003  00000-0  18740-4 0  9996
2 22826  98.8471  51.0826 0007949 240.8192 119.2195 14.30355391276654
RADIO ROSTO
1 23439U 94085A   18075.56970854 -.00000019 +00000-0 +67938-3 0  9999
2 23439 064.8157 138.6250 0160437 198.7312 270.9812 11.27566630956120
JAS 2
1 24278U 96046B   18076.16834205  .00000002  00000-0  38974-4 0  9996
2 24278  98.5261 287.5570 0350226 349.8402   9.5784 13.53082028 65790
TECHSAT 1B
1 25397U 98043D   18075.89173753 -.00000015 +00000-0 +12402-4 0  9994
2 25397 098.6417 017.8995 0000476 348.5690 011.5478 14.23641472022378
ISS (ZARYA)
1 25544U 98067A   18076.52731586  .00001492  00000-0  29790-4 0  9996
2 25544  51.6412 115.6593 0001973 204.9669 269.6058 15.54102132104260
PCSAT
1 26931U 01043C   18075.57591541  .00000001  00000-0  32013-4 0  9991
2 26931  67.0499 108.3755 0006503 282.9915  77.0459 14.30497122859307
SAUDISAT 1C
1 27607U 02058C   18076.16720881  .00000045  00000-0  27166-4 0  9997
2 27607  64.5570  11.3018 0054488 349.9276  10.0729 14.75428953819380
CUTE-1
1 27844U 03031E   18076.00058436  .00000066  00000-0  49591-4 0  9994
2 27844  98.6893  86.0070 0008646 279.3902  80.6298 14.22099986763095
CUBESAT XI 4
1 27848U 03031J   18075.93430552 +.00000039 +00000-0 +37680-4 0  9998
2 27848 098.6980 086.3080 0008586 290.9741 069.0518 14.21705629762927
MOZHAYETS 4
1 27939U 03042A   18076.55905767  .00000159  00000-0  36976-4 0  9995
2 27939  97.9744 218.1403 0014313  80.8338   9.5479 14.66665682773385
CUBESAT XI 5
1 28895U 05043F   18075.91027983 +.00000155 +00000-0 +38515-4 0  9991
2 28895 097.8944 231.1742 0016779 006.0310 354.1091 14.63519002660146
CUTE-1.7+APD II
1 32785U 08021C   18075.86008749  .00000282  00000-0  36256-4 0  9997
2 32785  97.5519  92.4260 0012752 351.5630   8.5371 14.88077065535447
DELFI C3
1 32789U 08021G   18075.88671513 +.00001670 +00000-0 +11919-3 0  9998
2 32789 097.5240 132.9958 0011046 249.1157 110.8888 15.05824015537792
SEEDS
1 32791U 08021J   18076.09874348  .00000324  00000-0  38619-4 0  9998
2 32791  97.5429  97.7962 0012507 331.2167  28.8361 14.90489324535799
YUBELEINY
1 32953U 08025A   18076.44809268  .00000009  00000-0 -37630-5 0  9994
2 32953  82.4998  69.7279 0020184  52.2142 308.0762 12.43082341445372
PRISM (HITOMI)
1 33493U 09002B   18076.47805266  .00001253  00000-0  11689-3 0  9992
2 33493  98.1403 335.0092 0013528 260.7437  99.2251 14.96117435496636
KKS-1 (KISEKI)
1 33499U 09002H   18075.94029140 +.00000112 +00000-0 +24609-4 0  9998
2 33499 098.3517 254.7264 0008381 220.2827 139.7761 14.75303420491159
SWISSCUBE
1 35932U 09051B   18075.94678588  .00000156  00000-0  46219-4 0  9991
2 35932  98.5302 224.9631 0008693 129.2248 230.9722 14.56130908450014
BEESAT
1 35933U 09051C   18075.91195833  .00000136  00000-0  41595-4 0  9996
2 35933  98.5343 226.4154 0006729 139.1187 221.0515 14.56238160450118
ITUPSAT 1
1 35935U 09051E   18076.39593562  .00000117  00000-0  38043-4 0  9995
2 35935  98.5455 227.1647 0009103 135.1895 225.0038 14.55418683449975
XIWANG-1 (HOPE-1)
1 36122U 09072B   18076.12245079 -.00000029  00000-0  33735-4 0  9991
2 36122 100.0816  95.0400 0007106 332.2782  27.7876 13.16343673396531
TISAT 1
1 36799U 10035E   18075.89249983 +.00000465 +00000-0 +53374-4 0  9997
2 36799 098.0910 209.7493 0013212 146.8294 213.3754 14.90721536416206
JUGNU
1 37839U 11058B   18076.43465779  .00000307  00000-0  21840-4 0  9991
2 37839  19.9606 233.6186 0018984 315.4653  58.8415 14.12612327332388
SRMSAT
1 37841U 11058D   18075.91330111 +.00000313 +00000-0 +26877-4 0  9999
2 37841 019.9722 284.0819 0011825 196.9956 256.6585 14.10600748331745
M-CUBED/EXP-1 PRIME
1 37855U 11061F   18076.02163489  .00002669  00000-0  14382-3 0  9996
2 37855 101.7250  91.3868 0177248 355.0553   4.8902 15.04168320347799
HORYU 2
1 38340U 12025D   18075.98496796  .00000232  00000-0  42119-4 0  9995
2 38340  98.3730  94.5109 0012443 139.8722 220.3407 14.75512615313512
STRAND 1
1 39090U 13009E   18075.86318204 +.00000056 +00000-0 +34912-4 0  9991
2 39090 098.5308 283.3996 0008647 205.3202 154.7561 14.35014882264563
SOMP
1 39134U 13015E   18076.22811524  .00001973  00000-0  10320-3 0  9996
2 39134  64.8637  64.3210 0021566 222.4418 137.5042 15.18899813270931
BEESAT 3
1 39135U 13015F   18075.96871051 +.00001522 +00000-0 +87330-4 0  9994
2 39135 064.8680 077.3322 0026853 246.7742 113.0555 15.16460496270275
BEESAT 2
1 39136U 13015G   18076.17016594  .00001326  00000-0  78475-4 0  9994
2 39136  64.8685  79.2235 0027568 246.1599 113.6636 15.15938830270641
CUBEBUG 1
1 39153U 13018D   18076.31685829  .00000275  00000-0  42962-4 0  9999
2 39153  97.9770 172.1173 0015824 241.3724 118.5897 14.80354513263999
ZACUBE
1 39417U 13066B   18076.15309483  .00000296  00000-0  43538-4 0  9999
2 39417  97.5975 109.6583 0060697  96.5995 264.2132 14.80890655233173
TRITON 1
1 39427U 13066M   18075.91980596 +.00000164 +00000-0 +34164-4 0  9992
2 39427 097.6391 077.9773 0113768 194.2813 165.5170 14.67622017230855
GOMX 1
1 39430U 13066Q   18076.47688482  .00000189  00000-0  43741-4 0  9995
2 39430  97.6895  60.0033 0150163 259.9971  98.4256 14.59038811229776
HUMSAT D
1 39433U 13066T   18075.88082683 +.00000411 +00000-0 +45894-4 0  9992
2 39433 097.6157 135.4391 0031680 032.6626 327.6543 14.91775015233488
50 SAT
1 39436U 13066W   18076.33548452  .00196179  00000-0  19851-2 0  9996
2 39436  97.7136 205.3550 0004520 204.0250 156.0798 15.64646626238908
CUBEBUG 2
1 39440U 13066AA  18076.12524692  .00000259  00000-0  42888-4 0  9999
2 39440  97.6076  96.8044 0081715 133.8289 226.9715 14.75625642232342
FUNCUBE 1
1 39444U 13066AE  18075.65675980  .00000338  00000-0  48001-4 0  9998
2 39444  97.5988 110.5955 0059864  94.0565 266.7494 14.81657632231950
UWE-3
1 39446U 13066AG  18076.03488797  .00000263  00000-0  41465-4 0  9995
2 39446  97.6012 102.7651 0071706 115.8548 245.0081 14.78159142231501
SPROUT
1 39770U 14029E   18076.52703764  .00000994  00000-0  11787-3 0  9997
2 39770  97.8716 178.3744 0010042 142.5947 217.5996 14.86718477206740
UNISAT 6
1 40012U 14033C   18075.81204738  .00000229  00000-0  41640-4 0  9994
2 40012  97.8224 315.4350 0059419 135.8176 224.7800 14.73776484201097
DUCHIFAT 1
1 40021U 14033M   18075.80393143  .00000506  00000-0  57987-4 0  9991
2 40021  97.9174 354.3569 0014176 119.5849 240.6783 14.90224007203191
QB50P1
1 40025U 14033R   18075.92927206 +.00000345 +00000-0 +43028-4 0  9993
2 40025 097.9082 351.5077 0013634 124.7621 235.4881 14.88654652202550
CHUBUSAT 1
1 40300U 14070C   18076.48407241  .00000784  00000-0  37875-4 0  9994
2 40300  97.3703 156.1219 0018894 220.6382 262.9016 15.21427222186331
NUDT-PHONESAT
1 40900U 15049B   18076.53851122  .00003225  00000-0  14865-3 0  9990
2 40900  97.4428  85.8645 0013362 358.0035   2.1145 15.20913396137984
ZDPS 2A
1 40901U 15049C   18076.52351666  .00001311  00000-0  69819-4 0  9992
2 40901  97.4602  84.3073 0013796   3.7270 356.4063 15.16912828137768
ZDPS 2B
1 40902U 15049D   18076.55092506  .00001167  00000-0  62867-4 0  9996
2 40902  97.4495  82.5093 0013775   0.7289 359.3962 15.16715249137752
XW-2A
1 40903U 15049E   18076.51284887  .00003160  00000-0  80798-4 0  9996
2 40903  97.3949 110.4216 0014437   8.5204 351.6284 15.40120516139694
KAITUO 1A
1 40904U 15049F   18076.53756844  .00000835  00000-0  48240-4 0  9998
2 40904  97.4590  81.8398 0015176   2.8380 111.7143 15.14919357137623
OBJECT G
1 40905U 15049G   18076.54175484  .00000605  00000-0  36966-4 0  9992
2 40905  97.4583  80.0722 0015611 354.1242   5.9804 15.13886305137557
XW-2C
1 40906U 15049H   18076.51880810  .00000965  00000-0  55007-4 0  9992
2 40906  97.4603  81.6986 0014842 354.2796   5.8264 15.15059429137617
XW-2D
1 40907U 15049J   18076.54615052  .00001019  00000-0  57700-4 0  9993
2 40907  97.4575  81.4340 0014153 352.3807   7.7208 15.15200600137624
LILACSAT 2
1 40908U 15049K   18076.50985073  .00000544  00000-0  34037-4 0  9993
2 40908  97.4685  80.8734 0015783 352.5698   7.5297 15.13433025137507
XW-2F
1 40910U 15049M   18076.49896575  .00001521  00000-0  81750-4 0  9992
2 40910  97.4581  82.5376 0014759 348.3748  11.7142 15.16328423137567
XW-2B
1 40911U 15049N   18076.49432561  .00001006  00000-0  57082-4 0  9993
2 40911  97.4612  81.8854 0014073 353.1195   6.9842 15.15148358137519
